DW5212 Weather Reports


time (UTC)temp
C
wind
direction
speed
KPH
gust
KPH
rain 1hr
cm
rain 24hr
cm
rain mn
cm
humidity
%
barometer
mb
20260901040503 26 88 0.0 1.6 0.00 0.00 0.00 79 1016.0
20260901035503 26 89 0.0 0.0 0.00 0.00 0.00 79 1015.9
20260901035004 26 88 0.0 0.0 0.00 0.00 0.00 79 1015.8
20260901034504 27 89 0.0 0.0 0.00 0.00 0.00 78 1015.8
20260901034004 27 89 0.0 1.6 0.00 0.00 0.00 78 1015.9
20260901033503 27 88 0.0 1.6 0.00 0.00 0.00 78 1016.0
20260901032504 27 89 0.0 0.0 0.00 0.00 0.00 77 1015.9
20260901032004 27 89 0.0 0.0 0.00 0.00 0.00 77 1015.9
20260901031504 27 89 0.0 0.0 0.00 0.00 0.00 77 1015.9
20260901031004 27 89 0.0 0.0 0.00 0.00 0.00 76 1015.8
20260901030504 27 89 0.0 0.0 0.00 0.00 0.00 76 1015.7
20260901025504 27 89 0.0 1.6 0.00 0.00 0.00 76 1015.7
20260901025004 27 89 0.0 1.6 0.00 0.00 0.00 75 1015.7
20260901024504 27 89 0.0 3.2 0.00 0.00 0.00 75 1015.7
20260901024005 27 130 0.0 1.6 0.00 0.00 0.00 74 1015.7
20260901023006 27 130 0.0 3.2 0.00 0.00 0.00 73 1015.6
20260901022504 28 201 0.0 0.0 0.00 0.00 0.00 73 1015.5
20260901022005 28 201 0.0 3.2 0.00 0.00 0.00 74 1015.4
20260901021504 28 201 0.0 4.8 0.00 0.00 0.00 73 1015.3
20260901020006 28 253 0.0 4.8 0.00 0.00 0.00 74 1015.3
20260901015504 28 253 0.0 4.8 0.00 0.00 0.00 74 1015.3
20260901015004 28 90 0.0 3.2 0.00 0.00 0.00 73 1015.4
20260901014504 28 90 0.0 1.6 0.00 0.00 0.00 72 1015.4
20260901014003 28 92 0.0 1.6 0.00 0.00 0.00 73 1015.2
20260901013503 28 93 0.0 1.6 0.00 0.00 0.00 72 1015.3
20260901013004 28 94 0.0 0.0 0.00 0.00 0.00 72 1015.4
20260901012504 28 94 0.0 3.2 0.00 0.00 0.00 71 1015.3
20260901012004 28 88 0.0 1.6 0.00 0.00 0.00 70 1015.3
20260901011504 29 162 0.0 0.0 0.00 0.00 0.00 70 1015.2
20260901011004 29 162 0.0 0.0 0.00 0.00 0.00 69 1015.2
20260901010004 30 162 0.0 0.0 0.00 0.00 0.00 68 1015.0
20260901005503 30 162 0.0 0.0 0.00 0.00 0.00 68 1015.1
20260901005004 30 161 0.0 0.0 0.00 0.00 0.00 68 1015.0
20260901004504 30 162 0.0 0.0 0.00 0.00 0.00 67 1014.9
20260901004004 30 162 0.0 0.0 0.00 0.00 0.00 66 1014.8
20260901003004 31 162 0.0 0.0 0.00 0.00 0.00 65 1014.9
20260901002004 31 161 0.0 0.0 0.00 0.00 0.00 62 1014.8
20260901001004 31 162 0.0 0.0 0.00 0.00 0.00 59 1014.7
20260901000504 31 162 0.0 0.0 0.00 0.00 0.00 58 1014.6
20260901000008 32 161 0.0 0.0 0.00 0.00 0.00 58 1014.8
20260831235503 32 162 0.0 3.2 0.00 0.00 0.00 58 1014.9
20260831235004 32 162 0.0 3.2 0.00 0.00 0.00 57 1014.9
20260831234004 32 162 0.0 0.0 0.00 0.00 0.00 55 1015.1
20260831233503 32 162 0.0 3.2 0.00 0.00 0.00 55 1015.0
20260831233004 32 162 0.0 3.2 0.00 0.00 0.00 54 1014.9
20260831232504 32 96 0.0 1.6 0.00 0.00 0.00 53 1015.0
20260831232003 33 95 1.6 3.2 0.00 0.00 0.00 54 1015.1
20260831230503 33 138 0.0 4.8 0.00 0.00 0.00 54 1014.9
20260831230006 33 182 1.6 4.8 0.00 0.00 0.00 54 1014.9
20260831225504 33 109 1.6 4.8 0.00 0.00 0.00 53 1015.0
20260831225004 33 211 1.6 6.4 0.00 0.00 0.00 53 1014.9
20260831224504 33 16 1.6 4.8 0.00 0.00 0.00 53 1014.9
20260831224003 33 64 1.6 3.2 0.00 0.00 0.00 53 1015.0
20260831223503 33 89 1.6 6.4 0.00 0.00 0.00 54 1014.9
20260831223004 33 188 1.6 6.4 0.00 0.00 0.00 52 1015.0
20260831222503 33 169 1.6 6.4 0.00 0.00 0.00 52 1014.8
20260831222005 33 219 1.6 4.8 0.00 0.00 0.00 52 1014.8
20260831221504 33 71 1.6 4.8 0.00 0.00 0.00 52 1014.8
20260831221004 33 102 1.6 4.8 0.00 0.00 0.00 53 1014.8
20260831220503 33 167 1.6 11.3 0.00 0.00 0.00 53 1014.9
20260831220006 33 108 1.6 11.3 0.00 0.00 0.00 54 1014.8
20260831215503 33 112 1.6 6.4 0.00 0.00 0.00 55 1014.8
20260831215004 33 208 0.0 3.2 0.00 0.00 0.00 55 1015.0
20260831214504 33 208 0.0 3.2 0.00 0.00 0.00 54 1015.0
20260831214004 33 208 0.0 1.6 0.00 0.00 0.00 53 1015.3
20260831213503 33 208 0.0 3.2 0.00 0.00 0.00 53 1015.3
20260831213004 34 139 1.6 4.8 0.00 0.00 0.00 51 1015.3
20260831212503 34 150 3.2 4.8 0.00 0.00 0.00 50 1015.5
20260831212003 35 24 3.2 4.8 0.00 0.00 0.00 50 1015.5
20260831211504 35 23 1.6 4.8 0.00 0.00 0.00 51 1015.4
20260831211004 34 144 1.6 8.0 0.00 0.00 0.00 50 1015.6
20260831210503 34 159 1.6 8.0 0.00 0.00 0.00 51 1015.5
20260831205503 35 214 1.6 3.2 0.00 0.00 0.00 50 1015.5
20260831205004 35 28 1.6 6.4 0.00 0.00 0.00 52 1015.7
20260831204004 35 105 1.6 4.8 0.00 0.00 0.00 52 1015.7
20260831203503 35 155 1.6 9.7 0.00 0.00 0.00 50 1015.7
20260831203004 35 143 1.6 9.7 0.00 0.00 0.00 51 1015.7
20260831202504 35 265 1.6 4.8 0.00 0.00 0.00 52 1015.8
20260831202004 35 24 3.2 4.8 0.00 0.00 0.00 51 1015.9
20260831201504 35 82 1.6 4.8 0.00 0.00 0.00 51 1015.8
20260831201004 35 114 3.2 6.4 0.00 0.00 0.00 51 1015.8
20260831200504 35 17 3.2 6.4 0.00 0.00 0.00 52 1015.8
20260831195503 35 132 0.0 6.4 0.00 0.00 0.00 52 1015.9
20260831195003 35 67 1.6 3.2 0.00 0.00 0.00 53 1016.1
20260831194504 35 67 3.2 6.4 0.00 0.00 0.00 51 1016.1
20260831194005 35 47 3.2 6.4 0.00 0.00 0.00 51 1016.1
20260831192503 35 150 1.6 4.8 0.00 0.00 0.00 53 1016.5
20260831192003 35 109 1.6 4.8 0.00 0.00 0.00 52 1016.5
20260831191503 35 112 1.6 4.8 0.00 0.00 0.00 52 1016.6
20260831190503 35 194 3.2 6.4 0.00 0.00 0.00 52 1016.7
20260831185503 35 262 1.6 4.8 0.00 0.00 0.00 54 1016.6
20260831184504 34 105 1.6 9.7 0.00 0.00 0.00 54 1016.8
20260831184004 34 286 1.6 4.8 0.00 0.00 0.00 55 1016.7
20260831183503 35 26 1.6 4.8 0.00 0.00 0.00 54 1016.8
20260831183006 35 183 3.2 6.4 0.00 0.00 0.00 54 1016.7
20260831182504 34 202 3.2 6.4 0.00 0.00 0.00 56 1016.8
20260831182004 34 71 3.2 6.4 0.00 0.00 0.00 58 1016.8
20260831181504 33 28 3.2 8.0 0.00 0.00 0.00 56 1016.9
20260831181005 33 194 3.2 8.0 0.00 0.00 0.00 56 1017.0
20260831180503 33 74 1.6 4.8 0.00 0.00 0.00 59 1017.2
20260831180006 33 344 1.6 4.8 0.00 0.00 0.00 56 1017.3
20260831175504 34 19 3.2 6.4 0.00 0.00 0.00 56 1017.4
20260831175004 34 59 1.6 6.4 0.00 0.00 0.00 56 1017.5
20260831174503 34 26 1.6 6.4 0.00 0.00 0.00 56 1017.5
20260831174004 33 203 3.2 6.4 0.00 0.00 0.00 58 1017.5
20260831173504 33 111 3.2 6.4 0.00 0.00 0.00 57 1017.6
20260831171504 33 122 1.6 9.7 0.00 0.00 0.00 60 1017.8
20260831170503 32 265 1.6 4.8 0.00 0.00 0.00 62 1017.9
20260831170006 32 292 0.0 4.8 0.00 0.00 0.00 62 1018.0
20260831165503 32 31 1.6 4.8 0.00 0.00 0.00 61 1018.1
20260831165003 32 32 1.6 4.8 0.00 0.00 0.00 61 1018.0
20260831164504 32 105 1.6 4.8 0.00 0.00 0.00 61 1018.2
20260831163004 32 202 1.6 4.8 0.00 0.00 0.00 61 1018.3
20260831162503 32 169 1.6 3.2 0.00 0.00 0.00 64 1018.4
20260831162004 32 51 1.6 4.8 0.00 0.00 0.00 63 1018.5
20260831161004 32 102 1.6 4.8 0.00 0.00 0.00 62 1018.5
20260831160005 31 121 1.6 4.8 0.00 0.00 0.00 65 1018.5
20260831155003 31 177 1.6 4.8 0.00 0.00 0.00 67 1018.5
20260831154504 31 338 0.0 3.2 0.00 0.00 0.00 66 1018.6
20260831154003 32 5 1.6 3.2 0.00 0.00 0.00 66 1018.5
20260831153503 32 64 1.6 8.0 0.00 0.00 0.00 66 1018.6
20260831153004 32 144 1.6 8.0 0.00 0.00 0.00 67 1018.5
20260831152503 32 169 1.6 4.8 0.00 0.00 0.00 68 1018.4
20260831152004 32 173 1.6 4.8 0.00 0.00 0.00 69 1018.3
20260831151503 31 128 1.6 4.8 0.00 0.00 0.00 70 1018.3
20260831151003 31 95 1.6 4.8 0.00 0.00 0.00 71 1018.3
20260831150503 31 143 1.6 8.0 0.00 0.00 0.00 72 1018.3
20260831150004 30 238 0.0 8.0 0.00 0.00 0.00 73 1018.3
20260831145004 30 144 1.6 4.8 0.00 0.00 0.00 75 1018.2
20260831144504 30 146 0.0 3.2 0.00 0.00 0.00 77 1018.1
20260831143503 28 155 1.6 4.8 0.00 0.00 0.00 81 1018.3
20260831143004 28 190 1.6 4.8 0.00 0.00 0.00 83 1018.2
20260831142503 27 109 1.6 4.8 0.00 0.00 0.00 84 1018.3
20260831142004 27 134 1.6 3.2 0.00 0.00 0.00 87 1018.3
20260831141503 26 145 0.0 6.4 0.00 0.00 0.00 89 1018.3
20260831141003 26 138 0.0 6.4 0.00 0.00 0.00 90 1018.2
20260831140502 25 92 0.0 0.0 0.00 0.00 0.00 91 1018.3
20260831140004 25 97 0.0 0.0 0.00 0.00 0.00 92 1018.3
20260831135503 25 98 0.0 0.0 0.00 0.00 0.00 93 1018.3
20260831135004 25 98 0.0 0.0 0.00 0.00 0.00 93 1018.3
20260831133504 23 98 0.0 0.0 0.00 0.00 0.00 94 1018.1
20260831133004 23 219 0.0 0.0 0.00 0.00 0.00 94 1018.1
20260831132503 23 219 0.0 0.0 0.00 0.00 0.00 95 1018.0
20260831132003 23 219 0.0 0.0 0.00 0.00 0.00 95 1018.0
20260831131504 23 219 0.0 0.0 0.00 0.00 0.00 94 1018.0
20260831131003 23 219 0.0 0.0 0.00 0.00 0.00 95 1017.9
20260831130503 22 219 0.0 0.0 0.00 0.00 0.00 95 1017.9
20260831130004 22 219 0.0 0.0 0.00 0.00 0.00 95 1017.8
20260831125504 22 219 0.0 0.0 0.00 0.00 0.00 94 1017.7
20260831125004 22 219 0.0 0.0 0.00 0.00 0.00 94 1017.7
20260831124003 22 219 0.0 0.0 0.00 0.00 0.00 94 1017.6
20260831123503 21 219 0.0 0.0 0.00 0.00 0.00 94 1017.6
20260831123004 21 219 0.0 0.0 0.00 0.00 0.00 94 1017.5
20260831122503 21 219 0.0 0.0 0.00 0.00 0.00 94 1017.3
20260831122003 21 219 0.0 0.0 0.00 0.00 0.00 93 1017.3
20260831121503 21 219 0.0 0.0 0.00 0.00 0.00 93 1017.2
20260831121004 21 219 0.0 0.0 0.00 0.00 0.00 93 1017.1
20260831120503 21 219 0.0 0.0 0.00 0.00 0.00 93 1017.1
20260831120004 21 219 0.0 0.0 0.00 0.00 0.00 93 1017.0
20260831115504 21 219 0.0 0.0 0.00 0.00 0.00 93 1016.9
20260831115004 21 219 0.0 0.0 0.00 0.00 0.00 93 1016.9
20260831114504 21 219 0.0 0.0 0.00 0.00 0.00 93 1016.8
20260831114003 21 219 0.0 0.0 0.00 0.00 0.00 93 1016.8
20260831113503 21 219 0.0 0.0 0.00 0.00 0.00 93 1016.7
20260831113004 21 219 0.0 0.0 0.00 0.00 0.00 93 1016.6
20260831112503 21 219 0.0 0.0 0.00 0.00 0.00 93 1016.6
20260831112004 22 219 0.0 0.0 0.00 0.00 0.00 93 1016.5
20260831111503 22 219 0.0 0.0 0.00 0.00 0.00 93 1016.5
20260831111004 22 219 0.0 0.0 0.00 0.00 0.00 93 1016.5
20260831110503 22 219 0.0 0.0 0.00 0.00 0.00 93 1016.4
20260831110004 22 219 0.0 0.0 0.00 0.00 0.00 93 1016.3
20260831105503 22 219 0.0 0.0 0.00 0.00 0.00 92 1016.3
20260831105003 22 219 0.0 0.0 0.00 0.00 0.00 92 1016.3
20260831104503 22 219 0.0 0.0 0.00 0.00 0.00 92 1016.3
20260831103004 22 219 0.0 0.0 0.00 0.00 0.00 92 1016.2
20260831102501 22 219 0.0 0.0 0.00 0.00 0.00 92 1016.2
20260831102004 22 219 0.0 0.0 0.00 0.00 0.00 91 1016.2
20260831101502 22 219 0.0 0.0 0.00 0.00 0.00 92 1016.2
20260831100500 22 219 0.0 0.0 0.00 0.00 0.00 91 1016.2
20260831100004 22 219 0.0 0.0 0.00 0.00 0.00 92 1016.2
20260831095003 22 219 0.0 0.0 0.00 0.00 0.00 92 1016.1
20260831094004 22 219 0.0 0.0 0.00 0.00 0.00 91 1016.1
20260831093500 22 219 0.0 0.0 0.00 0.00 0.00 91 1016.1
20260831093003 22 219 0.0 0.0 0.00 0.00 0.00 91 1016.0
20260831092503 22 219 0.0 0.0 0.00 0.00 0.00 91 1016.1
20260831092004 22 219 0.0 0.0 0.00 0.00 0.00 90 1016.4
20260831091503 22 219 0.0 0.0 0.00 0.00 0.00 90 1016.4
20260831090503 23 219 0.0 0.0 0.00 0.00 0.00 90 1016.2
20260831090004 23 219 0.0 0.0 0.00 0.00 0.00 89 1016.2
20260831085503 23 219 0.0 0.0 0.00 0.00 0.00 89 1016.2
20260831085003 23 219 0.0 0.0 0.00 0.00 0.00 89 1016.2
20260831084500 23 219 0.0 0.0 0.00 0.00 0.00 88 1016.1
20260831084003 23 219 0.0 0.0 0.00 0.00 0.00 88 1016.1
20260831083503 23 219 0.0 0.0 0.00 0.00 0.00 88 1016.2
20260831083004 23 219 0.0 0.0 0.00 0.00 0.00 88 1016.1
20260831082459 23 219 0.0 0.0 0.00 0.00 0.00 88 1016.1
20260831082004 23 219 0.0 0.0 0.00 0.00 0.00 88 1016.1
20260831081003 23 219 0.0 0.0 0.00 0.00 0.00 88 1016.2
20260831080500 23 219 0.0 0.0 0.00 0.00 0.00 88 1016.2
20260831080004 23 219 0.0 0.0 0.00 0.00 0.00 88 1016.3
20260831075500 23 219 0.0 0.0 0.00 0.00 0.00 87 1016.3
20260831075004 23 219 0.0 0.0 0.00 0.00 0.00 87 1016.4
20260831074500 23 219 0.0 0.0 0.00 0.00 0.00 87 1016.3
20260831074003 23 219 0.0 0.0 0.00 0.00 0.00 87 1016.4
20260831073500 23 219 0.0 0.0 0.00 0.00 0.00 86 1016.4
20260831073003 24 219 0.0 0.0 0.00 0.00 0.00 86 1016.4
20260831072503 24 219 0.0 0.0 0.00 0.00 0.00 86 1016.4
20260831072004 24 219 0.0 0.0 0.00 0.00 0.00 86 1016.4
20260831071500 24 219 0.0 0.0 0.00 0.00 0.00 85 1016.5
20260831071004 24 219 0.0 0.0 0.00 0.00 0.00 85 1016.5
20260831070500 24 219 0.0 0.0 0.00 0.00 0.00 85 1016.6
20260831070003 24 219 0.0 0.0 0.00 0.00 0.00 85 1016.6
20260831065503 25 219 0.0 0.0 0.00 0.00 0.00 85 1016.6
20260831065004 25 219 0.0 0.0 0.00 0.00 0.00 84 1016.6
20260831064003 25 219 0.0 0.0 0.00 0.00 0.00 84 1016.7
20260831063459 25 219 0.0 0.0 0.00 0.00 0.00 84 1016.7
20260831062500 25 219 0.0 0.0 0.00 0.00 0.00 84 1016.7
20260831062004 25 219 0.0 0.0 0.00 0.00 0.00 84 1016.8
20260831061503 25 219 0.0 0.0 0.00 0.00 0.00 83 1016.8
20260831061002 25 219 0.0 0.0 0.00 0.00 0.00 83 1016.7
20260831060500 25 219 0.0 0.0 0.00 0.00 0.00 83 1016.7
20260831055503 25 219 0.0 0.0 0.00 0.00 0.00 82 1016.7
20260831055003 25 219 0.0 0.0 0.00 0.00 0.00 82 1016.8
20260831054503 25 219 0.0 0.0 0.00 0.00 0.00 82 1016.7
20260831054004 25 219 0.0 0.0 0.00 0.00 0.00 82 1016.7
20260831053503 25 224 0.0 0.0 0.00 0.00 0.00 82 1016.8
20260831053004 25 226 0.0 0.0 0.00 0.00 0.00 82 1016.8
20260831052004 25 165 0.0 0.0 0.00 0.00 0.00 81 1016.7
20260831051504 25 165 0.0 0.0 0.00 0.00 0.00 81 1016.6
20260831051004 25 165 0.0 0.0 0.00 0.00 0.00 81 1016.7
20260831050503 25 165 0.0 0.0 0.00 0.00 0.00 80 1016.8
20260831050010 25 159 0.0 3.2 0.00 0.00 0.00 80 1016.6
20260831045504 25 159 0.0 3.2 0.00 0.00 0.00 80 1016.7
20260831045004 25 184 0.0 1.6 0.00 0.00 0.00 80 1016.7
20260831044504 25 184 0.0 1.6 0.00 0.00 0.00 79 1016.8
20260831044004 25 184 0.0 1.6 0.00 0.00 0.00 79 1016.7
20260831043503 26 171 0.0 3.2 0.00 0.00 0.00 79 1016.7
20260831043004 26 199 0.0 1.6 0.00 0.00 0.00 79 1016.8
20260831042504 26 199 0.0 1.6 0.00 0.00 0.00 78 1016.7
20260831042004 26 199 0.0 0.0 0.00 0.00 0.00 78 1016.6
20260831041504 26 199 0.0 0.0 0.00 0.00 0.00 78 1016.6
20260831041004 26 199 0.0 0.0 0.00 0.00 0.00 77 1016.6